Аэропорт
Душанбе (UTDD)

 UTDD / DYU
ЗЦ Центральная Азия
Душанбе (UTDD)
Душанбе (UTDD)
 38.54330, 68.82500  / 2575 ft

 UTDD 201130Z 11007MPS 9999 NSC 14/M00 Q1020 R09/D NOSIG RMK QFE696/0929
 TAF UTDD 200600Z 2007/2019 VRB02MPS 6000 SCT060CB BKN100 PROB40 TEMPO 2007/2019 3100 -TSRA BR
UTDD charts
показать схемы
Название сценария Тип сценария Flight Simulator 9 Flight Simulator X Prepar3D v2 Prepar3D v3 Prepar3D v4 Prepar3D v5 xPlane
Recommended scenery for FS9 бесплатный
Recommended scenery for FSX бесплатный
Recommended scenery for xPlane бесплатный


2020 © VATRUS division (Privacy Policy)